Location: Deuil
(48.9767°N, 2.3272°E)
Time: 02:33:04
(UTC+00:00)

Cosmos 2360 Rocket - Pass Details

Date: 26 May 2022
Orbit: 832 x 846 km, 71.0° (Epoch: 03 July)

Event Time Altitude Azimuth Distance (km) Brightness Sun altitude
Exits shadow 21:40:55 20° 135° (SE) 1,837 3.4 -14.3°
Maximum altitude 21:43:03 25° 103° (ESE) 1,619 3.3 -14.5°
Drops below altitude 10° 21:47:35 10° 49° (NE) 2,464 4.8 -14.8°
Sets 21:50:24 0° 37° (NE) 3,406 5.7 -15.1°
